This demonstration page uses our WeatherBlox Daily Observations layout. Learn more.

Left ArrowRight Arrow

Hourly Observations for February 20, 2022

Temp ( °F °C ) Dew Point ( °F °C ) Humidity (%) Winds ( mph kmh ) Pressure ( in mb ) Visibility ( mi km ) Precip ( " mm )
12:53 am 00:53 Mostly Cloudy 32 0 28 -2.2 85 85 SSW 8 13 29.63 1003 10 16 0.00 0.00
1:53 am 01:53 Clear 31 -0.6 27 -2.8 85 85 WSW 8 13 29.63 1003 10 16 0.00 0.00
2:53 am 02:53 Mostly Clear 35 1.7 29 -1.7 78 78 SW 12 19 29.62 1003 10 16 0.00 0.00
3:53 am 03:53 Cloudy 36 2.2 30 -1.1 79 79 SW 9 15 29.60 1002 10 16 0.00 0.00
4:53 am 04:53 Mostly Cloudy 35 1.7 29 -1.7 78 78 SW 10 17 29.61 1003 10 16 0.00 0.00
5:53 am 05:53 Cloudy 34 1.1 29 -1.7 82 82 N 7 11 29.64 1004 10 16 0.00 0.00
6:53 am 06:53 Mostly Cloudy 26 -3.3 23 -5 88 88 N 16 26 29.69 1005 10 16 0.00 0.00
7:27 am 07:27 Cloudy 18 -7.8 13 -10.6 81 81 NNE 22 35 29.87 1012 10 16 0.00 0.00
7:53 am 07:53 Cloudy 16 -8.9 10 -12.2 77 77 NE 23 37 29.81 1010 10 16 0.00 0.00
8:39 am 08:39 Cloudy 14 -10 8 -13.3 77 77 NE 23 37 30.00 1016 10 16 0.00 0.00
8:53 am 08:53 Cloudy 13 -10.6 6 -14.4 74 74 NE 29 46 29.90 1012 10 16 0.00 0.00
9:53 am 09:53 Cloudy with Haze 9 -12.8 3 -16.1 77 77 NE 22 35 29.94 1014 4 6 0.00 0.00
10:27 am 10:27 Windy with Snow Likely 8 -13.3 3 -16.1 80 80 NE 20 31 30.11 1020 2 3 0.00 0.00
10:36 am 10:36 Windy with Snow Likely 7 -13.9 2 -16.7 80 80 NE 21 33 30.13 1020 1 2 0.00 0.00
10:53 am 10:53 Windy with Snow Likely 7 -13.9 2 -16.7 80 80 NE 20 31 29.98 1015 2 2 0.00 0.00
11:03 am 11:03 Cloudy with Haze 7 -14 1 -17 78 78 NE 18 30 30.15 1021 3 4 0.00 0.00
11:11 am 11:11 Cloudy with Haze 6 -14.4 0 -17.8 76 76 NE 18 30 30.15 1021 3 5 0.00 0.00
11:53 am 11:53 Cloudy with Light Snow 6 -14.4 0 -17.8 76 76 NNE 16 26 30.05 1018 2 2 0.00 0.00
12:01 pm 12:01 Cloudy with Light Snow 6 -14.4 1 -17.2 79 79 NNE 15 24 30.19 1022 1 2 0.00 0.00
12:11 pm 12:11 Mostly Cloudy with Light Snow 6 -14.4 0 -17.8 76 76 NNE 15 24 30.20 1023 1 1 0.00 0.00
12:53 pm 12:53 Cloudy with Light Snow 6 -14.4 0 -17.8 76 76 NNE 16 26 30.05 1018 1 2 0.02 0.51
1:19 pm 13:19 Cloudy with Light Snow 6 -14.4 0 -17.8 76 76 NE 15 24 30.21 1023 1 1 0.00 0.00
1:34 pm 13:34 Cloudy with Light Snow 6 -14.4 0 -17.8 76 76 NE 15 24 30.21 1023 1 2 0.00 0.00
1:53 pm 13:53 Cloudy with Light Snow 6 -14.4 -1 -18.3 73 73 NNE 14 22 30.06 1018 1 2 0.00 0.00
2:25 pm 14:25 Cloudy with Light Snow 6 -14.4 0 -17.8 76 76 NE 12 19 30.23 1024 1 1 0.01 0.25
2:34 pm 14:34 Cloudy with Light Snow 6 -14.4 0 -17.8 76 76 NNE 14 22 30.23 1024 1 2 0.01 0.25
2:45 pm 14:45 Cloudy with Light Snow 6 -14.4 -1 -18.3 73 73 NE 12 19 30.23 1024 2 3 0.02 0.51
2:53 pm 14:53 Cloudy with Light Snow 6 -14.4 0 -17.8 76 76 NE 13 20 30.08 1019 2 3 0.02 0.51
3:09 pm 15:09 Cloudy with Light Snow 6 -14.4 0 -17.8 76 76 NE 13 20 30.23 1024 1 2 0.00 0.00
3:17 pm 15:17 Cloudy with Light Snow 6 -14.4 0 -17.8 76 76 NE 13 20 30.24 1024 2 3 0.00 0.00
3:24 pm 15:24 Cloudy with Light Snow 6 -14.4 0 -17.8 76 76 NE 13 20 30.23 1024 3 5 0.00 0.00
3:40 pm 15:40 Cloudy 6 -14.4 0 -17.8 76 76 NE 8 13 30.26 1025 8 13 0.00 0.00
3:53 pm 15:53 Cloudy 7 -13.9 -1 -18.3 70 70 NE 9 15 30.11 1020 8 13 0.00 0.00
4:40 pm 16:40 Cloudy with Light Snow 5 -15 -1 -18.3 76 76 NE 15 24 30.28 1025 2 3 0.00 0.00
4:48 pm 16:48 Cloudy with Light Snow 5 -15 0 -18 78 78 NE 12 19 30.28 1025 2 2 0.00 0.00
4:53 pm 16:53 Cloudy with Light Snow 5 -15 -1 -18.3 76 76 NE 12 19 30.14 1021 2 2 0.00 0.00
5:27 pm 17:27 Cloudy with Light Snow 5 -15 0 -17.8 79 79 ENE 13 20 30.30 1026 2 3 0.01 0.25
5:37 pm 17:37 Cloudy with Haze 4 -15.6 -1 -18.3 80 80 ENE 15 24 30.32 1027 3 5 0.01 0.25
5:53 pm 17:53 Cloudy 4 -15.6 -1 -18.3 80 80 ENE 15 24 30.16 1021 8 13 0.01 0.25
6:53 pm 18:53 Cloudy 2 -16.7 -3 -19.4 80 80 ENE 14 22 30.20 1023 7 11 0.00 0.00
7:03 pm 19:03 Cloudy 2 -16.7 -4 -20 76 76 ENE 15 24 30.35 1028 9 14 0.00 0.00
7:21 pm 19:21 Partly Cloudy 1 -17.2 -5 -20.6 75 75 ENE 13 20 30.37 1028 10 16 0.00 0.00
7:53 pm 19:53 Cloudy 2 -16.7 -5 -20.6 72 72 ENE 10 17 30.25 1024 10 16 0.00 0.00
8:53 pm 20:53 Cloudy 1 -17.2 -5 -20.6 75 75 E 16 26 30.26 1025 10 16 0.00 0.00
9:53 pm 21:53 Cloudy 1 -17.2 -6 -21.1 72 72 E 16 26 30.30 1026 10 16 0.00 0.00
10:53 pm 22:53 Cloudy 0 -17.8 -6 -21.1 76 76 ENE 15 24 30.32 1027 10 16 0.00 0.00
11:53 pm 23:53 Cloudy 0 -17.8 -7 -21.7 72 72 ENE 16 26 30.32 1027 10 16 0.00 0.00

Powered by AerisWeather